Flag for Chile Weather past 2 weeks in Antofagasta, Chile

Now
59 °F

Clear.


Feels Like: 59 °F
Forecast: 65 / 74 °F
Wind: 2 mph from North

Location: Antofagasta Airport

Current Time: May 3, 2015 at 5:52:51 AM

Latest Report: May 3, 2015 at 5:00 AM


Visibility: 10 mi

Pressure: 29.95 "Hg

Humidity: 77%

Dew point: 52 °F

Location of AntofagastaLocation

Historic Weather in Antofagasta — Graph

°F

Antofagasta temperature yesterday

Maximum temperature yesterday: 70 °F (at 2:00 PM)
Minimum temperature yesterday: 59 °F (at 8:00 AM)
Average temperature yesterday: 64 °F

Past Weeks' High & Low Weather Summary

 TemperatureHumidityPressure
High72 °F (Apr 18, 12:00 PM)88% (Apr 28, 1:00 AM)30.04 "Hg (Apr 28, 1:00 AM)
Low57 °F (Apr 28, 8:00 AM)39% (Apr 27, 5:00 AM)29.83 "Hg (Apr 27, 4:00 PM)
Average65 °F71%29.92 "Hg
* Reported Apr 18 5:00 AM — May 3 5:00 AM, Antofagasta, Weather by CustomWeather, © 2015

Note: Actual official high and low records may vary slightly from our data, if they occured in-between our weather recording intervals... More about our weather records

Advertising

Antofagasta weather history for previous 24 hours

 ConditionsComfort  
Time TempWeatherWind HumidityBarometerVisibility
5:00 AM
Sun, May 3
59 °FClear.2 mph77%29.95 "Hg10 mi
4:00 AM59 °FClear.1 mph82%29.95 "Hg10 mi
3:00 AM59 °FClear.1 mph88%29.95 "Hg10 mi
2:00 AM61 °FClear.1 mph83%29.95 "Hg10 mi
1:00 AM61 °FClear.2 mph88%29.95 "Hg10 mi
12:00 AM61 °FClear.7 mph88%29.95 "Hg10 mi
11:00 PM
Sat, May 2
63 °FClear.9 mph83%29.95 "Hg10 mi
10:00 PM63 °FClear.9 mph83%29.92 "Hg10 mi
9:00 PM64 °FPassing clouds.9 mph78%29.92 "HgN/A
8:00 PM64 °FPassing clouds.9 mph78%29.89 "HgN/A
7:00 PM66 °FPassing clouds.12 mph73%29.89 "HgN/A
6:00 PM68 °FPassing clouds.12 mph69%29.89 "HgN/A
5:00 PM68 °FPassing clouds.13 mph69%29.89 "HgN/A
4:00 PM70 °FPassing clouds.12 mph60%29.89 "HgN/A
3:00 PM70 °FPassing clouds.10 mph57%29.92 "HgN/A
2:00 PM70 °FPassing clouds.6 mph57%29.92 "HgN/A
1:00 PM68 °FPartly sunny.10 mph64%29.95 "HgN/A
12:00 PM66 °FOvercast.6 mph68%29.95 "Hg6 mi
11:00 AM66 °FPartly sunny.5 mph73%29.95 "Hg5 mi
10:00 AM64 °FSunny.2 mph73%29.92 "Hg10 mi
9:00 AM61 °FSunny.2 mph77%29.92 "Hg10 mi
8:00 AM59 °FPassing clouds.5 mph82%29.92 "HgN/A
7:00 AM61 °FPassing clouds.3 mph77%29.92 "HgN/A
6:00 AM61 °FClear.3 mph83%29.92 "Hg10 mi
5:00 AM61 °FClear.2 mph88%29.92 "Hg6 mi
Weather by CustomWeather, © 2015

See weather overviewHow to use our weather pages